sat.trackr.live / text

‹ back to catalog

UNISAT-7

NORAD 47945 · 2021-022P

PAYLOAD ACTIVE UNKNOWN

§ Identity

Operator
Country
IT
Launch date
2021-03-22
Launch site
TYMSC
Launch vehicle
Mass (kg)
RCS (m²)

External: N2YO · Heavens-Above · Gunter

§ Orbital elements

Epoch: 2026-09-09T17:47:30.742656Z

Period
93.35 min
Inclination
97.3795°
Eccentricity
0.0010349
Mean motion
15.42517372 rev/d
Perigee alt
431.6 km
Apogee alt
445.7 km
Semi-major
6,816.8 km
B*
2.5645e-4
RAAN
158.6290°
Arg perigee
121.6346°
Mean anomaly
238.5913°
Rev number
30,288

§ Raw data

UNISAT-71 47945U 21022P   26252.74132804  .00011057  00000+0  25645-3 0  99902 47945  97.3795 158.6290 0010349 121.6346 238.5913 15.42517372302881

JSON: /api/v1/satellites/47945 · /tle

For live sub-satellite position, see the globe view (requires WebGL).

§ Visibility from observer

Set your observer location to see the next 7 days of passes ≥ 10°. The values pass through the URL so the page stays shareable.

No JS? Fill the form by hand. The geolocation button needs JavaScript.

§ Radio — SatNOGS DB

ModeDescriptionDownlinkUplink
FSK TLM 437.425 MHz

1 transmitter · refreshed weekly from db.satnogs.org